Regional Weather Roundup
Issued by NWS Pendleton, OR

Home | Current Version | Previous Version | Text Only | Print | Product List | Glossary On
Versions: 1 2 3 4 5 6 7 8 9 10 11 12 13 14 15 16 17 18 19 20 21 22 23 24 25 26 27 28 29 30 31 32 33 34 35 36 37 38 39 40 41 42 43 44 45 46 47 48 49 50
000
ASUS46 KPDT 280704
RWRPDT
PENDLETON REGIONAL WEATHER ROUNDUP
NATIONAL WEATHER SERVICE PENDLETON OREGON
1200 AM PDT SUN MAY 28 2017

NOTE: FAIR INDICATES FEW OR NO CLOUDS BELOW 12,000 FEET WITH NO
SIGNIFICANT WEATHER AND/OR OBSTRUCTIONS TO VISIBILITY.

# INDICATES UNOFFICIAL STATION AND DATA

WAZ520-280810-
EAST SLOPES OF WASHINGTON CASCADES

CITY            SKY/WX      TMP DP  RH  WIND    PRES   REMARKS
#BULLFROG       N/A         54  48  80  CALM    N/A
#CLE ELUM HS    N/A         56  46  69  CALM    30.06S
#CLE ELUM LAKE  N/A         63  42  46  E1      30.11R
#ELK HTS DOT    N/A         62  61  97  S3      N/A
#GLENWOOD       N/A         48  44  86  CALM    30.06R
#NELSON 3SW     N/A         55  46  72  CALM    30.24S
#NILE           N/A         53  47  80  CALM    29.37R
#TEANAWAY 4NE   N/A         55  47  74  CALM    N/A
#TROUT LAKE 1NE N/A         54  45  71  CALM    30.05R
#TROUT LAKE 1E  N/A         48  44  86  CALM    30.14R
$$

WAZ521-280810-
SIMCOE HIGHLANDS

CITY            SKY/WX      TMP DP  RH  WIND    PRES   REMARKS
#BICKLETON HS   N/A         52  44  74  W5      30.11S
#CENTERVILLE 1SWN/A         56  41  57  CALM    29.99S
#GOLDENDALE 1NE N/A         61  29  30  N5      N/A
#GOLDENDALE 4W  N/A         59  18  20  CALM    30.13R
#GOODNOE HILLS  N/A         71  40  32  E3      N/A
#LYLE 6NE       N/A         66  44  45  NE2     29.99R
#PITT 4SE       N/A         62  40  44  CALM    30.04R
$$

WAZ026-280810-
KITTITAS VALLEY

CITY            SKY/WX      TMP DP  RH  WIND    PRES   REMARKS
ELLENSBURG AP   CLEAR       63  43  48  N6      30.11R
YTC-OPS AREA    CLEAR       69  33  26  SW6     30.17R
#ELLENSBURG CWU N/A         61  46  58  CALM    29.98S
#ELLENSBURG 3NE N/A         56  47  72  CALM    28.18R
#KITTITAS 4N    N/A         61  42  50  E6      30.12R
#KITTITAS 3S    N/A         52  47  83  CALM    30.05R
#MANASTASH RDG  N/A         68  68  100 S3      N/A
#ROCKY CYN DOT  N/A         59  47  64  W3      N/A
#RYEGRASS DOT   N/A         67  38  34  E1      N/A
#THORP 6N       N/A         62  43  50  CALM    30.07R
$$

WAZ027-280810-
YAKIMA VALLEY

CITY            SKY/WX      TMP DP  RH  WIND    PRES   REMARKS
SUNNYSIDE AP    CLEAR       57  46  67  N3      30.06R
YAKIMA AIRPORT  CLEAR       60  48  64  W6      30.09R
YAKIMA-VAGABOND CLEAR       60  42  51  CALM    30.07R
#DONALD 2NE     N/A         71  12  10  W2      28.92R
#GRANDVIEW      N/A         63  43  48  CALM    30.05R
#MABTON         N/A         59  47  64  CALM    30.05R
#MOXEE 2E       N/A         60  N/A N/A CALM    30.06R
#NACHES 2SW     N/A         58  48  69  W1      30.09S
#OUTLOOK DOT    N/A         65  43  45  CALM    30.03R
#PARKER DOT     N/A         71  39  31  CALM    30.06R
#TERRACE HTS    N/A         64  45  50  CALM    30.00R
#TOPPENISH      N/A         66  46  48  CALM    29.95R
#I82 S UMTANUM RN/A         63  39  41  NE5     N/A
#UNION GAP DOT  N/A         62  47  58  N2      30.10R
#WEST VALLEY    N/A         62  47  58  CALM    30.02R
#W YAKIMA       N/A         66  47  50  NW3     30.03R
#WHITE SWAN 5E  N/A         58  47  67  CALM    30.03S
#WILEY CITY 3W  N/A         60  42  51  CALM    30.06S
#ZILLAH DOT     N/A         64  42  45  NE5     N/A
$$

WAZ028-280810-
LOWER COLUMBIA BASIN...WASHINGTON

CITY            SKY/WX      TMP DP  RH  WIND    PRES   REMARKS
PASCO           CLEAR       58  52  80  CALM    30.05R
PROSSER AWOS    N/A         57  48  72  CALM    30.09R
RICHLAND AWOS   CLEAR       62  51  67  CALM    30.05R
#BENTON CITY    N/A         64  44  48  CALM    29.93S
#CONNELL 5N     N/A         59  47  64  NE1     30.03S
#CONNELL 5NW    N/A         61  47  60  CALM    29.98R
#ELTOPIA 6NW    N/A         68  48  49  CALM    29.03S
#KAHLOTUS       N/A         63  46  54  S7      30.03R
#KENNEWICK 3S   N/A         67  47  49  CALM    30.02R
#PATERSON       N/A         67  48  50  CALM    30.01R
#PROSSER DOT    N/A         58  46  64  CALM    30.06R
#SAGEMOOR 2W    N/A         68  48  49  N1      29.89R
#TOUCHET 2S     N/A         53  50  89  CALM    30.00S
#WEST PASCO     N/A         66  50  56  CALM    30.02R
$$

WAZ029-280810-
FOOTHILLS OF THE BLUES...WASHINGTON

CITY            SKY/WX      TMP DP  RH  WIND    PRES   REMARKS
WALLA WALLA AP  CLEAR       65  47  52  E7      30.06R
#CLYDE 6NW      N/A         58  42  55  CALM    30.01S
#DAYTON SCHOOL  N/A         58  41  53  VRB1    30.11S
#DELANEY DOT    N/A         53  46  77  CALM    30.09R
#LOWDEN 2SE     N/A         57  51  80  CALM    30.01R
#PLEASANT VIEW 1N/A         67  41  39  CALM    30.05S
#PRESCOTT       N/A         61  50  67  CALM    30.01S
#WHITMAN COLLEGEN/A         66  49  54  CALM    30.06R
#WAITSBURG 6SSE N/A         59  44  57  SE3     30.04S
#WAITSBURG 8N   N/A         86  N/A N/A NW8     30.11S
#WALLA WALLA 5E N/A         60  49  67  NE3     N/A
#WALLA WALLA U  N/A         65  50  58  CALM    30.01S
#WHITMAN MISSIONN/A         59  52  78  CALM    30.03S
$$

WAZ030-280810-
BLUE MOUNTAINS...WASHINGTON

CITY            SKY/WX      TMP DP  RH  WIND    PRES   REMARKS
#DIXIE 5SE      N/A         66  40  38  N6      30.07S
$$

ORZ009-041-WAZ024-280810-
COLUMBIA RIVER GORGE

CITY            SKY/WX      TMP DP  RH  WIND    PRES   REMARKS
HOOD RIVER AP   CLEAR       61  46  58  CALM    30.06R
THE DALLES AP   CLEAR       65  47  52  SE5     30.03R
#ARLINGTON AIRPON/A         68  42  39  N3      30.03R
#CELILO DOT     N/A         69  43  39  S1      N/A
#LYLE           N/A         64  47  54  N3      30.03R
#MARYHILL       N/A         71  38  30  N1      29.90S
#MURDOCK        N/A         66  47  50  CALM    29.99R
#RUFUS DOT      N/A         68  44  42  S9      N/A
#SMITHVILLE     N/A         60  44  55  E1      29.97R

$$

ORZ510-280810-
NORTH CENTRAL OREGON

CITY            SKY/WX      TMP DP  RH  WIND    PRES   REMARKS
#ANTELOPE       N/A         61  39  44  NE2     29.91R
#CHENOWITH 1W   N/A         51  35  54  NW14    N/A
#COW CYN RST AREN/A         65  35  33  NE6     N/A
#DUFUR          N/A         53  45  74  CALM    30.00R
#DUFUR 9E       N/A         71  37  29  E9      30.05R
#GRASS VALLEY 1SN/A         55  40  57  CALM    30.12S
#KENT DOT       N/A         63  32  31  E2      N/A
#MAUPIN SCHOOL  N/A         67  45  45  CALM    30.11R
#MORO SCHOOL    N/A         53  43  69  CALM    30.17S
#SHANIKO 5WSW   N/A         64  32  30  N16     N/A
#SHANIKO 4NW    N/A         63  34  34  E12     30.15S
#TYGH VALLEY 2NEN/A         60  42  51  CALM    30.02S
#WAPANITIA AIRPON/A         58  43  57  CALM    30.04S
#WASCO DOT      N/A         55  43  64  SE3     N/A
#WASCO 5NE      N/A         55  42  61  CALM    30.02R
$$

ORZ511-280810-
CENTRAL OREGON

CITY            SKY/WX      TMP DP  RH  WIND    PRES   REMARKS
BEND AIRPORT    CLEAR       61  34  36  W6      30.10R
MADRAS AIRPORT  CLEAR       54  41  61  N7      30.13R
PRINEVILLE AP   CLEAR       52  36  54  S6      30.15R
REDMOND AIRPORT CLEAR       59  31  34  W6      30.13R
#ASHWOOD SCHOOL N/A         60  40  47  S7      30.08R
#BEND 1SW       N/A         51  38  61  N1      N/A
#BEND-AWBREY    N/A         61  36  39  CALM    30.02R
#BEND-KIM LN    N/A         58  37  45  W6      29.98R
#CULVER         N/A         57  42  57  CALM    29.95S
#CULVER 8W      N/A         64  39  40  CALM    30.11S
#MADRAS 4S      N/A         61  16  17  CALM    N/A
#POWELL BUTTE   N/A         65  34  31  CALM    30.10R
#PRINEVILLE     N/A         64  37  37  E2      30.09R
#PRINEVILLE 3N  N/A         54  41  61  NE3     30.03R
#WARM SPRINGS   N/A         66  42  42  CALM    29.88S

$$


ORZ509-280810-
EAST SLOPES OF OREGON CASCADES

CITY            SKY/WX      TMP DP  RH  WIND    PRES   REMARKS
SISTERS AWOS    N/A         54  39  57  CALM    30.12R
#CAMP SHERMAN   N/A         49  38  66  CALM    30.09R
#LA PINE 4SW    N/A         54  29  38  CALM    30.15S
#LA PINE 4NW    N/A         51  37  59  CALM    30.08R
#LAVA BUTTE DOT N/A         52  31  44  NE1     N/A
#SISTERS 3N     N/A         50  34  54  CALM    30.14R
#SUNRIVER       N/A         55  37  51  CALM    30.04S
#TUMALO 3W      N/A         64  34  33  NW6     29.89R
#WANOGA BUTTE D N/A         54  25  32  NE6     N/A

$$

ORZ044-280810-
LOWER COLUMBIA BASIN...OREGON

CITY            SKY/WX      TMP DP  RH  WIND    PRES   REMARKS
HERMISTON       CLEAR       60  48  64  SE5     30.04R
#BOARDMAN SCHOOLN/A         60  48  64  SE1     30.02R
#BOARDMAN 8SW   N/A         62  46  56  SW3     30.02R
#ECHO 8SW       N/A         58  46  64  SW1     30.05S
#I-84 EX 198 DOTN/A         66  49  54  NE8     N/A
#IONE SCHOOL    N/A         62  42  48  CALM    30.03R
#UMATILLA       N/A         66  47  50  CALM    29.95R
$$

ORZ507-280810-
NORTHERN FOOTHILLS OF THE BLUES

CITY            SKY/WX      TMP DP  RH  WIND    PRES   REMARKS
PENDLETON AIRPT CLEAR       56  48  74  E8      30.07S
#ADAMS 3WNW     N/A         50  45  83  CALM    30.03S
#ATHENA         N/A         52  46  80  CALM    30.06R
#CAYUSE         N/A         62  49  62  E7      30.01S
#HELIX SCHOOL   N/A         57  46  67  CALM    30.03S
#HELIX 3N       N/A         62  43  50  NE2     30.06S
#HOLDMAN 5SE    N/A         56  47  72  CALM    30.06S
#HOLDMAN 6E     N/A         60  45  58  S1      29.83S
#M-F FERNDALE   N/A         61  47  60  CALM    30.02R
#M-FREEWATER 5SEN/A         65  46  50  NE6     30.07R
#PENDLETON DNTN N/A         60  42  51  E3      30.07R
#PDT AQUATIC CTRN/A         60  43  53  CALM    30.08S
#PDT SUNRIDGE   N/A         60  49  67  CALM    30.08S
#PENDLETON 7NW  N/A         58  48  69  CALM    32.36S
#PILOT ROCK 1S  N/A         63  42  46  S7      30.09S
#PILOT ROCK     N/A         58  44  60  CALM    30.11S
#TUTUILLA       N/A         55  47  74  CALM    30.05S
#UMAPINE 2E     N/A         61  50  67  CALM    30.01S
#WESTON SCHOOL  N/A         63  44  50  CALM    30.03R

$$

ORZ508-280810-
SOUTHERN FOOTHILLS OF THE BLUES

CITY            SKY/WX      TMP DP  RH  WIND    PRES   REMARKS
LEXINGTON       CLEAR       59  41  51  SE9     30.11S
#AJAX           N/A         64  29  27  CALM    30.24S
#CONDON 5W      N/A         64  33  31  E6      30.14S
#FOSSIL SCHOOL  N/A         54  42  64  CALM    30.07S
#HEPPNER EOC    N/A         60  42  51  SE7     29.97S
#LEXINGTON 2SE  N/A         64  42  45  SE5     30.04F
#MIKKALO        N/A         62  35  36  SE6     30.19S
#OLEX 4N        N/A         61  38  42  S6      30.03S
#RUGGS 5NE      N/A         59  37  44  E1      30.30S
#RUGGS 2SW      N/A         60  41  49  S7      30.04F

$$

ORZ502-503-280810-
BLUE MOUNTAINS

CITY            SKY/WX      TMP DP  RH  WIND    PRES   REMARKS
MEACHAM         CLEAR       46  40  79  CALM    30.19R
#BATTLE MTN DOT N/A         54  35  48  E2      N/A
#GRANITE        N/A         43  30  60  CALM    29.88R
#GREENHORN 9SW  N/A         45  39  79  CALM    30.19S
#HARDMAN 10S    N/A         54  38  55  CALM    30.17S
#LADD CYN SMT   N/A         46  40  79  E2      N/A
#LADD CREEK ODOTN/A         51  42  71  SW2     N/A
#LONG CREEK HS  N/A         52  42  69  CALM    N/A
#N POWDER DOT   N/A         51  44  77  W1      N/A
#PIKES PEAK     N/A         69  39  33  CALM    27.99S
#SUMMERVILLE 5NWN/A         54  43  66  NW3     30.18R
#TOLLGATE       N/A         50  39  66  CALM    30.07S
#TROY SCHOOL    N/A         54  49  83  CALM    29.95R
#UKIAH          N/A         45  42  89  CALM    30.03R
#WESTON 4E      N/A         61  44  53  E3      30.01R
$$

ORZ505-280810-
JOHN DAY BASIN

CITY            SKY/WX      TMP DP  RH  WIND    PRES   REMARKS
JOHN DAY        CLEAR       58  37  45  CALM    30.18R
#ANTELOPE 9ESE  N/A         64  40  41  CALM    N/A
#DAYVILLE SCHOOLN/A         59  33  37  CALM    30.09R
#MITCHELL       N/A         56  42  59  E2      30.28R
#MITCHELL 8NW   N/A         65  37  35  CALM    30.02S
#MONUMENT HS    N/A         56  43  62  CALM    30.07R
#MT. VERNON 5SE N/A         57  36  45  CALM    30.13S
#SPRAY SCHOOL   N/A         59  N/A N/A CALM    N/A
$$

ORZ506-280810-
OCHOCO AND JOHN DAY HIGHLANDS

CITY            SKY/WX      TMP DP  RH  WIND    PRES   REMARKS
#HORSE RIDGE DO N/A         46  27  47  CALM    N/A
#PAULINA ODOT   N/A         54  33  45  CALM    N/A
#PINE MTN OBS   N/A         57  29  34  E3      N/A
#SENECA         N/A         50  N/A N/A CALM    N/A
#SENECA 9NW     N/A         44  36  73  CALM    30.11R
$$

ORZ049-280810-
GRANDE RONDE VALLEY

CITY            SKY/WX      TMP DP  RH  WIND    PRES   REMARKS
LA GRANDE       CLEAR       54  41  61  CALM    30.15R
#COVE           N/A         57  44  62  N2      30.18R
#COVE SCHOOL    N/A         56  42  59  CALM    30.16R
#COVE 6NW       N/A         53  46  77  CALM    30.09R
#ELGIN 3N       N/A         51  38  61  CALM    30.12S
#ELGIN 1E       N/A         52  44  74  CALM    N/A
#IMBLER SCHOOL  N/A         55  42  61  N5      30.11R
#ISLAND CITY 4N N/A         63  55  75  CALM    30.02R
#LA GRANDE-LEFFEN/A         61  43  51  NW5     30.14S
#UNION 1S       N/A         60  41  49  E1      30.08S
$$

ORZ050-280810-
WALLOWA COUNTY

CITY            SKY/WX      TMP DP  RH  WIND    PRES   REMARKS
#ENTERPRISE HS  N/A         50  43  77  CALM    29.99S
#IMNAHA SCHOOL  N/A         55  45  69  N1      30.14R
#IMNAHA 10S     N/A         56  41  57  SW5     30.15S
#JOSEPH         N/A         55  42  61  CALM    30.18S
#JOSEPH 3N      N/A         47  37  68  CALM    30.22S
#LOSTINE        N/A         52  43  71  E2      29.91R
#LOSTINE 3SE    N/A         52  42  69  CALM    30.23S
#MT HOWARD 8000 N/A         47  29  49  CALM    30.40R
#PROMISE 1S     N/A         52  45  77  S2      30.17F
#WALLOWA LAKE   N/A         54  36  50  SE3     30.25R
#WALLOWA SCHOOL N/A         50  44  80  CALM    30.13R



$$



USA.gov is the U.S. government's official web portal to all federal, state and local government web resources and services.